DW3800 Weather Reports


time (UTC)temp
F
wind
direction
speed
knots
gust
knots
rain 1hr
in
rain 24hr
in
rain mn
in
humidity
%
barometer
mb
20260831122803 71 166 0.0 0.9 0.00 0.00 0.00 99 1011.8
20260831122258 71 146 0.0 0.0 0.00 0.00 0.00 99 1012.0
20260831121753 71 181 0.9 1.7 0.00 0.00 0.00 99 1012.0
20260831121249 70 115 0.0 0.0 0.00 0.00 0.00 99 1012.0
20260831120744 70 159 0.0 0.0 0.00 0.00 0.00 99 1011.7
20260831120239 70 129 0.0 0.0 0.00 0.00 0.00 99 1011.6
20260831115734 70 132 0.0 0.0 0.00 0.00 0.00 99 1011.5
20260831115230 70 110 0.0 0.0 0.00 0.00 0.00 99 1011.5
20260831114729 70 124 0.0 0.0 0.00 0.00 0.00 99 1011.6
20260831114229 70 130 0.0 0.0 0.00 0.00 0.00 99 1011.5
20260831113725 70 121 0.0 0.0 0.00 0.00 0.00 99 1011.4
20260831113219 70 113 0.0 0.0 0.00 0.00 0.00 99 1011.2
20260831112718 70 111 0.0 0.0 0.00 0.00 0.00 99 1011.1
20260831112214 70 153 0.0 0.9 0.00 0.00 0.00 99 1011.1
20260831111709 70 114 0.0 0.0 0.00 0.00 0.00 99 1010.9
20260831111206 70 97 0.0 0.0 0.00 0.00 0.00 99 1011.0
20260831110701 70 109 0.0 0.0 0.00 0.00 0.00 99 1011.0
20260831110156 70 106 0.0 0.0 0.00 0.00 0.00 99 1011.0
20260831105655 70 108 0.0 0.0 0.00 0.00 0.00 99 1011.0
20260831105150 70 121 0.0 0.0 0.00 0.00 0.00 99 1010.9
20260831104645 70 115 0.0 0.0 0.00 0.00 0.00 99 1011.0
20260831104142 70 98 0.0 0.0 0.00 0.00 0.00 99 1011.0
20260831103637 70 123 0.0 0.9 0.00 0.00 0.00 99 1010.8
20260831103132 70 111 0.0 0.0 0.00 0.00 0.00 99 1010.9
20260831102632 70 114 0.0 0.0 0.00 0.00 0.00 99 1010.8
20260831102127 70 106 0.0 0.9 0.00 0.00 0.00 99 1011.0
20260831101627 70 105 0.0 0.0 0.00 0.00 0.00 99 1010.9
20260831101123 70 88 0.0 0.0 0.00 0.00 0.00 99 1011.0
20260831100619 71 100 0.0 0.0 0.00 0.00 0.00 98 1010.8
20260831100115 71 119 1.7 2.6 0.00 0.00 0.00 98 1011.0
20260831095613 71 113 0.0 0.0 0.00 0.00 0.00 98 1010.9
20260831095108 71 105 0.0 0.0 0.00 0.00 0.00 98 1011.1
20260831094603 71 106 0.9 0.9 0.00 0.00 0.00 98 1011.0
20260831094100 71 112 0.9 2.6 0.00 0.00 0.00 98 1010.9
20260831093554 71 109 0.0 0.9 0.00 0.00 0.00 98 1010.8
20260831093051 71 8 0.0 0.9 0.00 0.00 0.00 98 1010.9
20260831092547 71 115 0.0 0.9 0.00 0.00 0.00 97 1010.8
20260831092042 71 124 0.0 0.9 0.00 0.00 0.00 97 1010.8
20260831091542 71 105 0.9 1.7 0.00 0.00 0.00 97 1010.7
20260831091038 71 103 0.0 1.7 0.00 0.00 0.00 97 1011.1
20260831090533 71 107 0.9 0.9 0.00 0.00 0.00 97 1011.1
20260831090029 71 101 0.0 0.9 0.00 0.00 0.00 97 1010.9
20260831085524 71 134 0.9 2.6 0.00 0.00 0.00 97 1011.1
20260831085019 71 132 0.0 2.6 0.00 0.00 0.00 97 1011.2
20260831084515 71 137 0.9 0.9 0.00 0.00 0.00 97 1010.8
20260831084011 71 102 0.0 0.0 0.00 0.00 0.00 97 1010.8
20260831083506 71 114 0.0 1.7 0.00 0.00 0.00 96 1010.8
20260831083000 71 131 1.7 2.6 0.00 0.00 0.00 96 1010.8
20260831082500 71 131 0.0 0.9 0.00 0.00 0.00 96 1010.7
20260831081954 71 107 0.9 4.3 0.00 0.00 0.00 96 1010.6
20260831081450 71 99 0.0 0.0 0.00 0.00 0.00 96 1010.6
20260831080946 71 101 0.9 1.7 0.00 0.00 0.00 96 1010.7
20260831080441 71 174 0.9 1.7 0.00 0.00 0.00 96 1010.6
20260831075936 71 122 0.0 0.0 0.00 0.00 0.00 96 1010.6
20260831075432 71 110 0.0 2.6 0.00 0.00 0.00 95 1010.8
20260831074927 71 103 0.0 0.9 0.00 0.00 0.00 95 1010.8
20260831074426 71 118 0.9 0.9 0.00 0.00 0.00 95 1010.8
20260831073921 71 113 1.7 5.2 0.00 0.00 0.00 95 1010.8
20260831073421 71 125 0.9 2.6 0.00 0.00 0.00 95 1010.9
20260831072915 71 130 0.0 0.9 0.00 0.00 0.00 95 1010.8
20260831072411 71 126 0.0 0.9 0.00 0.00 0.00 95 1010.8
20260831071908 71 100 0.0 0.9 0.00 0.00 0.00 95 1011.1
20260831071406 71 105 0.0 0.9 0.00 0.00 0.00 94 1010.9
20260831070901 71 117 0.0 1.7 0.00 0.00 0.00 94 1011.0
20260831070400 71 125 0.9 1.7 0.00 0.00 0.00 94 1010.9
20260831065859 71 92 0.0 0.9 0.00 0.00 0.00 94 1011.0
20260831065357 71 81 0.0 0.9 0.00 0.00 0.00 94 1011.0
20260831064853 72 100 0.0 1.7 0.00 0.00 0.00 94 1011.2
20260831064348 72 103 0.0 0.0 0.00 0.00 0.00 93 1011.4
20260831063843 72 113 0.9 0.9 0.00 0.00 0.00 93 1011.3
20260831063339 72 110 0.9 1.7 0.00 0.00 0.00 93 1011.3
20260831062838 72 106 0.9 1.7 0.00 0.00 0.00 93 1011.7
20260831062333 72 111 0.0 0.9 0.00 0.00 0.00 93 1011.5
20260831061832 72 170 0.9 0.9 0.00 0.00 0.00 93 1011.6
20260831061331 72 144 0.0 0.0 0.00 0.00 0.00 93 1011.5
20260831060828 72 63 0.0 0.0 0.00 0.00 0.00 92 1011.3
20260831060322 72 58 0.0 2.6 0.00 0.00 0.00 92 1011.5
20260831055821 72 79 0.9 1.7 0.00 0.00 0.00 92 1011.7
20260831055317 72 122 0.9 0.9 0.00 0.00 0.00 92 1011.7
20260831054812 72 89 0.0 0.9 0.00 0.00 0.00 92 1011.8
20260831054307 72 117 0.9 0.9 0.00 0.00 0.00 92 1012.0
20260831053806 72 112 0.9 0.9 0.00 0.00 0.00 91 1012.1
20260831053305 73 100 0.0 2.6 0.00 0.00 0.00 91 1012.2
20260831052759 73 111 0.0 5.2 0.00 0.00 0.00 91 1012.3
20260831052258 73 91 0.9 2.6 0.00 0.00 0.00 91 1012.2
20260831051757 73 112 1.7 2.6 0.00 0.00 0.00 90 1012.4
20260831051256 73 125 0.0 0.9 0.00 0.00 0.00 90 1012.5
20260831050751 73 124 2.6 4.3 0.00 0.00 0.00 90 1012.4
20260831050250 73 165 0.0 1.7 0.00 0.00 0.00 90 1012.5
20260831045744 73 152 1.7 2.6 0.00 0.00 0.00 90 1012.5
20260831045239 73 114 0.0 1.7 0.00 0.00 0.00 89 1012.4
20260831044733 73 133 2.6 2.6 0.00 0.00 0.00 89 1012.5
20260831044229 73 127 0.0 4.3 0.00 0.00 0.00 89 1012.2
20260831043724 73 83 1.7 2.6 0.00 0.00 0.00 89 1012.5
20260831043219 73 118 0.0 0.9 0.00 0.00 0.00 89 1012.3
20260831042718 74 124 0.9 2.6 0.00 0.00 0.00 88 1012.6
20260831042213 74 121 0.9 2.6 0.00 0.00 0.00 88 1012.6
20260831041708 74 113 0.9 1.7 0.00 0.00 0.00 88 1012.4
20260831041203 74 128 2.6 5.2 0.00 0.00 0.00 88 1012.5
20260831040657 74 137 2.6 7.0 0.00 0.00 0.00 88 1012.5
20260831040156 74 139 0.9 2.6 0.00 0.00 0.00 88 1012.3
20260831035655 74 106 1.7 2.6 0.00 0.00 0.00 88 1012.3
20260831035150 74 82 0.9 4.3 0.00 0.00 0.00 88 1012.3
20260831034648 74 100 1.7 4.3 0.00 0.00 0.00 88 1012.6
20260831034144 74 116 0.9 2.6 0.00 0.00 0.00 87 1012.4
20260831033640 74 160 2.6 4.3 0.00 0.00 0.00 87 1012.6
20260831033134 74 116 0.0 4.3 0.00 0.00 0.00 87 1012.3
20260831032634 75 185 0.9 1.7 0.00 0.00 0.00 87 1012.6
20260831032130 75 101 2.6 7.8 0.00 0.00 0.00 87 1012.6
20260831031630 75 111 0.9 2.6 0.00 0.00 0.00 86 1012.3
20260831031130 75 163 0.9 1.7 0.00 0.00 0.00 86 1012.3
20260831030628 75 111 1.7 2.6 0.00 0.00 0.00 86 1012.4
20260831030128 75 75 2.6 4.3 0.00 0.00 0.00 85 1012.4
20260831025626 75 121 1.7 4.3 0.00 0.00 0.00 85 1012.5
20260831025121 75 123 0.9 4.3 0.00 0.00 0.00 85 1012.5
20260831024618 76 92 0.9 4.3 0.00 0.00 0.00 84 1012.3
20260831024116 76 70 0.9 2.6 0.00 0.00 0.00 84 1012.5
20260831023615 76 63 1.7 2.6 0.00 0.00 0.00 84 1012.4
20260831023114 76 143 2.6 6.1 0.00 0.00 0.00 83 1012.5
20260831022609 76 78 0.0 4.3 0.00 0.00 0.00 83 1012.4
20260831022104 76 153 3.5 6.1 0.00 0.00 0.00 83 1012.5
20260831021603 77 133 2.6 4.3 0.00 0.00 0.00 82 1012.4
20260831021059 77 120 0.9 6.1 0.00 0.00 0.00 82 1012.4
20260831020554 77 158 0.0 2.6 0.00 0.00 0.00 81 1012.5
20260831020049 77 137 1.7 5.2 0.00 0.00 0.00 80 1012.5
20260831015545 77 171 1.7 5.2 0.00 0.00 0.00 79 1012.6
20260831015039 78 104 1.7 5.2 0.00 0.00 0.00 79 1012.7
20260831014534 78 169 3.5 6.1 0.00 0.00 0.00 78 1012.5
20260831014030 78 99 0.0 4.3 0.00 0.00 0.00 78 1012.2
20260831013525 79 137 1.7 6.1 0.00 0.00 0.00 76 1012.5
20260831013020 79 110 0.9 4.3 0.00 0.00 0.00 75 1012.2
20260831012514 79 114 1.7 7.0 0.00 0.00 0.00 74 1012.2
20260831012015 80 108 0.9 4.3 0.00 0.00 0.00 74 1011.8
20260831011509 80 116 2.6 2.6 0.00 0.00 0.00 74 1012.2
20260831011005 80 107 2.6 8.7 0.00 0.00 0.00 73 1012.2
20260831010504 81 92 4.3 7.8 0.00 0.00 0.00 73 1012.1
20260831010001 81 136 0.0 6.1 0.00 0.00 0.00 74 1012.0
20260831005456 81 102 0.9 1.7 0.00 0.00 0.00 73 1012.0
20260831004955 82 112 1.7 1.7 0.00 0.00 0.00 73 1011.8
20260831004452 82 128 1.7 4.3 0.00 0.00 0.00 72 1011.7
20260831003948 82 148 0.9 5.2 0.00 0.00 0.00 72 1011.8
20260831003444 82 126 0.0 1.7 0.00 0.00 0.00 72 1011.7
20260831002943 82 124 0.0 1.7 0.00 0.00 0.00 72 1011.6
20260831002442 83 113 0.9 4.3 0.00 0.00 0.00 72 1011.5
20260831001938 83 87 0.0 1.7 0.00 0.00 0.00 72 1011.3
20260831001433 83 114 2.6 2.6 0.00 0.00 0.00 71 1011.3
20260831000930 83 118 0.9 7.0 0.00 0.00 0.00 71 1011.4
20260831000426 84 112 1.7 6.1 0.00 0.00 0.00 71 1011.4
20260830235923 84 134 0.9 5.2 0.00 0.00 0.00 71 1011.2
20260830235419 84 104 0.9 1.7 0.00 0.00 0.00 71 1011.4
20260830234914 84 116 0.9 2.6 0.00 0.00 0.00 71 1011.6
20260830234409 84 148 1.7 2.6 0.00 0.00 0.00 72 1011.4
20260830233905 85 105 2.6 4.3 0.00 0.00 0.00 72 1011.4
20260830233400 85 147 1.7 6.1 0.00 0.00 0.00 72 1011.5
20260830232855 84 107 1.7 5.2 0.00 0.00 0.00 74 1011.3
20260830232351 84 180 3.5 5.2 0.00 0.00 0.00 77 1011.4
20260830231848 84 109 0.0 4.3 0.00 0.00 0.00 77 1011.4
20260830231343 84 108 0.0 5.2 0.00 0.00 0.00 77 1011.3
20260830230842 85 342 3.5 5.2 0.00 0.00 0.00 75 1011.5
20260830230337 85 205 1.7 4.3 0.00 0.00 0.00 75 1011.6
20260830225831 85 100 3.5 7.0 0.00 0.00 0.00 76 1011.5
20260830225326 84 327 0.0 0.9 0.00 0.00 0.00 76 1011.4
20260830224821 84 114 0.9 4.3 0.00 0.00 0.00 76 1011.4
20260830224315 84 303 0.9 2.6 0.00 0.00 0.00 77 1011.2
20260830223812 85 248 0.0 2.6 0.00 0.00 0.00 75 1011.1
20260830223308 85 30 1.7 5.2 0.00 0.00 0.00 76 1011.2
20260830222802 85 41 0.9 0.9 0.00 0.00 0.00 74 1011.1
20260830222257 84 171 0.0 4.3 0.00 0.00 0.00 76 1011.2
20260830221752 84 6 3.5 4.3 0.00 0.00 0.00 76 1011.1
20260830221249 83 103 3.5 6.1 0.00 0.00 0.00 77 1011.0
20260830220743 83 63 0.0 5.2 0.00 0.00 0.00 77 1011.2
20260830220243 84 6 3.5 7.0 0.00 0.00 0.00 76 1011.3
20260830215741 84 118 0.9 4.3 0.00 0.00 0.00 76 1011.2
20260830215236 84 34 4.3 5.2 0.00 0.00 0.00 74 1011.3
20260830214731 84 92 0.9 2.6 0.00 0.00 0.00 76 1011.0
20260830214226 83 160 1.7 2.6 0.00 0.00 0.00 76 1011.2
20260830213725 84 90 2.6 4.3 0.00 0.00 0.00 74 1011.4
20260830213220 86 158 0.9 1.7 0.00 0.00 0.00 73 1011.4
20260830212716 86 113 0.9 2.6 0.00 0.00 0.00 72 1011.6
20260830212211 85 51 2.6 4.3 0.00 0.00 0.00 73 1011.7
20260830211706 85 355 2.6 5.2 0.00 0.00 0.00 73 1011.6
20260830211205 84 172 0.0 7.0 0.00 0.00 0.00 74 1011.7
20260830210701 84 136 0.9 6.1 0.00 0.00 0.00 73 1011.6
20260830210200 85 184 0.9 5.2 0.00 0.00 0.00 72 1011.6
20260830205657 84 139 0.9 5.2 0.00 0.00 0.00 73 1011.7
20260830205152 84 161 0.9 1.7 0.00 0.00 0.00 75 1011.7
20260830204647 84 102 2.6 4.3 0.00 0.00 0.00 75 1011.8
20260830204145 84 109 1.7 4.3 0.00 0.00 0.00 74 1012.1
20260830203642 85 7 0.9 2.6 0.00 0.00 0.00 72 1012.0
20260830203137 84 103 1.7 2.6 0.00 0.00 0.00 73 1012.0
20260830202636 84 129 1.7 5.2 0.00 0.00 0.00 73 1012.1
20260830202132 85 132 2.6 6.1 0.00 0.00 0.00 73 1011.8
20260830201631 84 257 1.7 4.3 0.00 0.00 0.00 74 1012.0
20260830201127 83 214 1.7 9.6 0.00 0.00 0.00 77 1011.8
20260830200622 84 143 3.5 5.2 0.00 0.00 0.00 74 1011.8
20260830200121 84 319 0.9 4.3 0.00 0.00 0.00 74 1011.8
20260830195617 84 30 1.7 6.1 0.00 0.00 0.00 74 1011.7
20260830195114 84 31 2.6 7.8 0.00 0.00 0.00 74 1012.0
20260830194609 83 318 3.5 7.0 0.00 0.00 0.00 74 1012.0
20260830194108 84 153 0.9 7.8 0.00 0.00 0.00 74 1011.5
20260830193603 83 111 1.7 7.0 0.00 0.00 0.00 75 1011.8
20260830193058 83 110 1.7 6.1 0.00 0.00 0.00 75 1011.8
20260830192553 82 124 4.3 6.1 0.00 0.00 0.00 75 1011.8
20260830192053 83 109 0.9 6.1 0.00 0.00 0.00 76 1012.1
20260830191548 83 127 0.9 4.3 0.00 0.00 0.00 75 1012.2
20260830191038 82 143 0.9 1.7 0.00 0.00 0.00 77 1012.0
20260830190533 82 44 7.0 9.6 0.00 0.00 0.00 77 1012.3
20260830190028 82 176 0.0 4.3 0.00 0.00 0.00 78 1012.2
20260830185522 81 51 5.2 7.0 0.00 0.00 0.00 78 1012.5
20260830185018 80 129 1.7 4.3 0.00 0.00 0.00 80 1012.6
20260830184516 79 68 0.0 5.2 0.00 0.00 0.00 81 1012.7
20260830184005 79 153 2.6 11.3 0.00 0.00 0.00 81 1012.7
20260830183500 80 28 2.6 9.6 0.00 0.00 0.00 81 1012.7
20260830182955 80 104 4.3 7.0 0.00 0.00 0.00 81 1012.7
20260830182450 79 205 0.9 4.3 0.00 0.00 0.00 82 1012.8
20260830181946 79 115 2.6 7.0 0.00 0.00 0.00 82 1012.7
20260830181443 78 353 0.0 6.1 0.00 0.00 0.00 83 1012.9
20260830180937 78 104 2.6 7.8 0.00 0.00 0.00 83 1013.0
20260830180436 78 92 0.9 4.3 0.00 0.00 0.00 83 1013.0
20260830175935 78 117 1.7 7.0 0.00 0.00 0.00 83 1013.1
20260830175434 78 214 2.6 5.2 0.00 0.00 0.00 83 1013.1
20260830174925 78 155 2.6 2.6 0.00 0.00 0.00 83 1013.1
20260830174420 78 157 1.7 5.2 0.00 0.00 0.00 83 1013.3
20260830173915 78 101 7.0 7.8 0.00 0.00 0.00 83 1013.5
20260830173411 77 30 0.9 2.6 0.00 0.00 0.00 84 1013.5
20260830172906 77 158 1.7 4.3 0.00 0.00 0.00 84 1013.4
20260830172403 78 163 0.0 2.6 0.00 0.00 0.00 84 1013.4
20260830171858 78 135 1.7 4.3 0.00 0.00 0.00 84 1013.3
20260830171354 78 31 0.9 4.3 0.00 0.00 0.00 84 1013.1
20260830170848 78 252 0.9 1.7 0.00 0.00 0.00 84 1013.2
20260830170348 77 259 2.6 4.3 0.00 0.00 0.00 84 1013.1
20260830165846 77 101 0.9 6.1 0.00 0.00 0.00 85 1013.3
20260830165343 77 92 1.7 4.3 0.00 0.00 0.00 85 1013.3
20260830164839 77 1 0.0 4.3 0.00 0.00 0.00 85 1013.1
20260830164334 76 112 0.0 7.0 0.00 0.00 0.00 85 1013.2
20260830163831 76 262 2.6 4.3 0.00 0.00 0.00 85 1012.9
20260830163326 77 61 1.7 4.3 0.00 0.00 0.00 85 1012.8
20260830162821 77 335 1.7 5.2 0.00 0.00 0.00 84 1012.7
20260830162317 77 346 1.7 4.3 0.00 0.00 0.00 84 1012.7
20260830161812 77 134 0.0 7.0 0.00 0.00 0.00 85 1012.6
20260830161311 77 25 0.0 8.7 0.00 0.00 0.00 84 1012.7
20260830160806 76 304 0.0 1.7 0.00 0.00 0.00 86 1012.9
20260830160301 76 341 1.7 5.2 0.00 0.00 0.00 85 1012.7
20260830155757 76 12 0.9 6.1 0.00 0.00 0.00 85 1012.6
20260830155253 76 336 0.9 5.2 0.00 0.00 0.00 86 1012.6
20260830154753 76 82 1.7 5.2 0.00 0.00 0.00 86 1012.4
20260830154249 76 129 2.6 4.3 0.00 0.00 0.00 86 1012.6
20260830153746 76 315 3.5 6.1 0.00 0.00 0.00 85 1012.4
20260830153241 76 326 2.6 4.3 0.00 0.00 0.00 85 1012.4
20260830152739 76 228 0.9 2.6 0.00 0.00 0.00 85 1012.6
20260830152234 75 110 0.0 5.2 0.00 0.00 0.00 86 1012.6
20260830151733 75 116 1.7 1.7 0.00 0.00 0.00 87 1012.4
20260830151233 74 46 0.0 0.9 0.00 0.00 0.00 88 1012.1
20260830150728 74 68 0.0 1.7 0.00 0.00 0.00 88 1012.6
20260830150228 73 126 2.6 5.2 0.00 0.00 0.00 89 1012.4
20260830145723 73 333 1.7 2.6 0.00 0.00 0.00 89 1012.2
20260830145218 74 2 0.9 5.2 0.00 0.00 0.00 88 1012.3
20260830144713 73 50 1.7 2.6 0.00 0.00 0.00 89 1012.6
20260830144209 72 128 0.0 2.6 0.00 0.00 0.00 90 1012.5
20260830143705 72 147 0.0 1.7 0.00 0.00 0.00 91 1012.7
20260830143202 72 152 0.0 4.3 0.00 0.00 0.00 90 1012.3
20260830142658 72 339 1.7 2.6 0.00 0.00 0.00 90 1012.3
20260830142153 73 76 2.6 4.3 0.00 0.00 0.00 89 1012.7
20260830141648 73 127 0.0 2.6 0.00 0.00 0.00 89 1012.8
20260830141143 73 63 0.0 1.7 0.00 0.00 0.00 89 1013.0
20260830140638 71 55 0.0 4.3 0.00 0.00 0.00 91 1012.8
20260830140139 71 111 0.9 2.6 0.00 0.00 0.00 92 1012.8
20260830135634 70 92 0.0 1.7 0.00 0.00 0.00 94 1012.8
20260830135128 69 120 0.0 0.9 0.00 0.00 0.00 94 1012.9
20260830134625 69 333 2.6 4.3 0.00 0.00 0.00 95 1012.7
20260830134120 69 141 0.0 0.9 0.00 0.00 0.00 95 1012.7
20260830133615 68 259 0.9 4.3 0.00 0.00 0.00 96 1012.5
20260830133110 68 353 0.0 2.6 0.00 0.00 0.00 96 1012.4
20260830132607 68 43 1.7 1.7 0.00 0.00 0.00 97 1012.6
20260830132102 68 126 0.0 0.9 0.00 0.00 0.00 97 1012.6
20260830131601 67 58 0.9 4.3 0.00 0.00 0.00 98 1012.6
20260830131055 67 152 0.0 0.9 0.00 0.00 0.00 98 1012.9
20260830130550 67 114 0.9 2.6 0.00 0.00 0.00 98 1012.8
20260830130046 67 90 0.0 1.7 0.00 0.00 0.00 98 1012.8
20260830125540 67 59 0.9 4.3 0.00 0.00 0.00 98 1012.7
20260830125039 67 111 0.0 0.0 0.00 0.00 0.00 99 1013.1
20260830124538 67 258 0.9 5.2 0.00 0.00 0.00 99 1013.0
20260830124034 67 108 0.0 1.7 0.00 0.00 0.00 99 1012.8
20260830123531 67 137 0.9 1.7 0.00 0.00 0.00 99 1012.7